Location: Champseau
(45.8333°N, 1.7667°E)
Time: 06:03:50
(UTC+00:00)

NOSS 3-4 (C) - Pass Details

Date: 18 April 2021
Orbit: 873 x 1339 km, 63.4° (Epoch: 06 May)

Event Time Altitude Azimuth Distance (km) Brightness Sun altitude
Rises 19:46:07 0° 232° (SW) 3,457 6.7 -10.8°
Reaches altitude 10° 19:48:35 10° 236° (SW) 2,537 6.1 -11.2°
Maximum altitude 19:54:20 57° 315° (NW) 1,074 4.1 -12.1°
Drops below altitude 10° 20:00:35 10° 34° (NE) 2,745 5.8 -13.0°
Sets 20:03:21 0° 39° (NE) 3,764 6.5 -13.4°
